Tracking 30696 objects as of 15-Jun-2025
HD Live streaming from Space Station
objects crossing your sky now

THOR ABLESTAR DEB

Track THOR ABLESTAR DEB now!
10-day predictions


NORAD ID: 516
Int'l Code: 1961-015FT
Perigee: 864.4 km
Apogee: 989.3 km
Inclination: 66.0 °
Period: 103.4 minutes
Semi major axis: 7297 km
RCS: 0.1377 m2 (medium)
Launch date: June 29, 1961
Source: United States (US)
Launch site: AIR FORCE EASTERN TEST RANGE (AFETR)

Note: This is SATELLITE DEBRIS
Your satellite tracking list
Your tracking list is empty




NASA's NSSDC Master Catalog

Two Line Element Set (TLE):
1 00516U 61015FT  25165.68930030  .00000409  00000-0  37001-3 0  9990
2 00516  65.9958 356.6469 0085559 333.0248  26.6390 13.92553954237217
Source of the keplerian elements: AFSPC